Regional Weather Roundup
Issued by NWS

Home | Current Version | Previous Version | Graphics & Text | Print | Product List | Glossary Off
Versions: 1 2 3 4 5 6 7 8 9 10 11 12 13 14 15 16 17 18 19 20 21 22 23 24 25 26 27 28 29 30 31 32 33 34 35 36 37 38 39 40 41 42 43 44 45 46 47 48 49 50

000
ASUS43 KLSX 271207
RWRMO

WEATHER SUMMARY FOR MISSOURI
NATIONAL WEATHER SERVICE SPRINGFIELD MO
700 AM CDT FRI MAR 27 2015

NOTE: "FAIR" INDICATES FEW OR NO CLOUDS BELOW 12,000 FEET WITH NO
       SIGNIFICANT WEATHER AND/OR OBSTRUCTIONS TO VISIBILITY.
       CURRENT SKY AND/OR WEATHER CONDITIONS ARE NOT AVAILABLE FOR
       CHILLICOTHE AND FARMINGTON.

MOZ001>031-035>038-043-044-053-054-271300-
...NORTHERN AND WESTERN MISSOURI...

CITY           SKY/WX    TMP DP  RH WIND       PRES   REMARKS
KANSAS CTY INT MOCLDY    30  26  85 N10       30.21R WCI  21
6HR MIN TEMP:  30; 6HR MAX TEMP:  36; 6HR PCP: TRACE;

KANSAS C DTWN  CLEAR     34  28  79 N9        30.22R WCI  27
6HR MIN TEMP:  34; 6HR MAX TEMP:  40;

LEE`S SUMMIT   PTCLDY    33  28  81 N14       30.20R WCI  23
6HR MIN TEMP:  33; 6HR MAX TEMP:  38;

ST JOSEPH      CLEAR     28  23  81 N9        30.25R WCI  19
6HR MIN TEMP:  28; 6HR MAX TEMP:  37;

CHILLICOTHE      N/A     30  23  75 NW6       30.22R WCI  24
6HR MIN TEMP:  30; 6HR MAX TEMP:  38;

KIRKSVILLE     MOCLDY    31  20  63 N7        30.18R WCI  24
6HR MIN TEMP:  29; 6HR MAX TEMP:  35;


$$
MOZ066>068-077>081-088>096-101>105-271300-
...SOUTHWEST MISSOURI...

CITY           SKY/WX    TMP DP  RH WIND       PRES   REMARKS
SPRINGFIELD    CLOUDY    38  35  89 N14       30.10R WCI  30
6HR MIN TEMP:  38; 6HR MAX TEMP:  42; 6HR PCP:  0.07;

JOPLIN         CLOUDY    39  35  86 N12       30.15R
6HR MIN TEMP:  37; 6HR MAX TEMP:  41; 6HR PCP: TRACE;


$$
MOZ032>034-039>042-045>050-055>058-069>072-271300-
...CENTRAL MISSOURI...

CITY           SKY/WX    TMP DP  RH WIND       PRES   REMARKS
COLUMBIA       CLOUDY    33  29  85 NE9       30.16R WCI  25
6HR MIN TEMP:  32; 6HR MAX TEMP:  41; 6HR PCP:  0.02;

JEFFERSON CITY CLOUDY    34  29  82 N7        30.17R WCI  28
6HR MIN TEMP:  33; 6HR MAX TEMP:  43; 6HR PCP:  0.01;

ROLLA          LGT SNOW  32  29  88 MISG      30.10R FOG
6HR MIN TEMP:  32; 6HR MAX TEMP:  40; 6HR PCP:  0.01;

SEDALIA        CLOUDY    35  31  85 N9        30.18R WCI  28
6HR MIN TEMP:  35; 6HR MAX TEMP:  41; 6HR PCP:  0.01;

WHITEMAN AFB   MOCLDY    33  31  92 N8        30.18R WCI  26
WARRENSBURG    PTCLDY    32  32 100 N6        30.20R WCI  26
OSAGE BEACH    CLOUDY    36  30  80 N8        30.14R WCI  29

$$
MOZ051-052-059>065-271300-
...EAST CENTRAL MISSOURI...

CITY           SKY/WX    TMP DP  RH WIND       PRES   REMARKS
ST LOUIS INTL  FLURRIES  35  25  66 N10       30.13R WCI  27
6HR MIN TEMP:  35; 6HR MAX TEMP:  43; 6HR PCP: TRACE;

SPIRIT OF STL  CLOUDY    35  22  58 N13       30.14R WCI  26
6HR MIN TEMP:  34; 6HR MAX TEMP:  41; 6HR PCP: TRACE;

ST CHARLES     LGT SNOW  32  24  72 N7G21     30.14R WCI  26
6HR MIN TEMP:  32; 6HR MAX TEMP:  41; 6HR PCP: TRACE;


$$
MOZ072>076-082>087-097>100-106>115-271300-
...SOUTH CENTRAL AND SOUTHEAST MISSOURI...

CITY           SKY/WX    TMP DP  RH WIND       PRES   REMARKS
CAPE GIRARDEAU CLOUDY    37  31  78 N6        30.07R
6HR MIN TEMP:  32; 6HR MAX TEMP:  37;

FARMINGTON     CLOUDY    36  27  69 NE10      30.12R WCI  28
6HR MIN TEMP:  34; 6HR MAX TEMP:  39;

POPLAR BLUFF   CLOUDY    40  32  73 N6        30.06R
6HR MIN TEMP:  35; 6HR MAX TEMP:  40;

WEST PLAINS    LGT RAIN  38  33  82 MISG      30.07S
6HR MIN TEMP:  36; 6HR MAX TEMP:  41; 6HR PCP:  0.01;


$$



USA.gov is the U.S. government's official web portal to all federal, state and local government web resources and services.